Simultaneous Nadir Overpasses (SNOs) Predictions

Prediction of SNOs between NOAA-19 and TERRA Satellite Orbit:

Table of predicted SNOs for the next 14.0 days since TLE Epoch: 3/25/2023
Index Date (NOAA-19) Time (NOAA-19) Lat,Lon (NOAA-19) SZA (NOAA-19 ) Date (TERRA) Time (TERRA) Lat,Lon (TERRA) SZA (TERRA ) Distance(km) Time Diff (sec)
1 03/27/2023 06:09:45 80.93, 122.01 79.87 03/27/2023 06:10:58 80.94, 122.04 79.90 0.68 73
2 03/27/2023 07:00:41 -80.93, -70.16 100.10 03/27/2023 07:00:21 -80.94, -70.23 100.11 1.53 20
3 03/29/2023 10:00:21 -80.93,-115.89 100.99 03/29/2023 10:01:32 -80.92,-115.81 100.96 1.75 71
4 03/29/2023 10:51:20 80.93, 52.17 79.08 03/29/2023 10:50:53 80.94, 52.07 79.06 1.93 27
5 03/31/2023 13:50:59 80.93, 6.50 78.20 03/31/2023 13:52:03 80.92, 6.58 78.22 1.54 64
6 03/31/2023 14:41:56 -80.93, 174.39 101.76 03/31/2023 14:41:26 -80.93, 174.32 101.78 1.24 30
7 04/02/2023 17:41:35 -80.93, 128.85 102.62 04/02/2023 17:42:35 -80.92, 128.93 102.60 1.56 60
8 04/02/2023 18:32:33 80.93, -63.16 77.44 04/02/2023 18:31:56 80.94, -63.20 77.43 1.18 37
9 04/04/2023 21:32:11 80.93,-108.65 76.59 04/04/2023 21:33:04 80.94,-108.48 76.63 3.27 53
10 04/04/2023 22:23:10 -80.93, 58.94 103.40 04/04/2023 22:22:28 -80.92, 58.90 103.43 1.35 42
11 04/07/2023 01:22:48 -80.93, 13.59 104.23 04/07/2023 01:23:35 -80.93, 13.71 104.20 2.10 47



Historial Predications of SNOs between NOAA-19 and TERRA
